Actual water levels and discharges of Vltava river

Vraňany

Date and time (UTC) H (cm) Q (m³/s)
28. 9. 2022 15:10 119 190
28. 9. 2022 15:00 118 189
28. 9. 2022 14:00 119 190
28. 9. 2022 13:00 123 196
28. 9. 2022 12:00 121 193
28. 9. 2022 11:00 115 184
28. 9. 2022 10:00 110 176
28. 9. 2022 09:00 102 165
28. 9. 2022 08:00 99 160
28. 9. 2022 07:00 111 178
28. 9. 2022 06:00 118 189
28. 9. 2022 05:00 129 206
28. 9. 2022 04:00 130 208
28. 9. 2022 03:00 130 208

H - water level, Q - discharge

Praha-Chuchle

Date and time (UTC) H (cm) Q (m³/s)
28. 9. 2022 15:10 73 158
28. 9. 2022 15:00 73 158
28. 9. 2022 14:00 73 158
28. 9. 2022 13:00 73 158
28. 9. 2022 12:00 73 158
28. 9. 2022 11:00 73 158
28. 9. 2022 10:00 72 153
28. 9. 2022 09:00 73 158
28. 9. 2022 08:00 73 158
28. 9. 2022 07:00 73 158
28. 9. 2022 06:00 73 158
28. 9. 2022 05:00 74 163
28. 9. 2022 04:00 74 163
28. 9. 2022 03:00 74 163

H - water level, Q - discharge
more information

VD Vrané nad Vltavou

Date and time (UTC) H (m n. m.) Q (m³/s)
28. 9. 2022 15:10 199.31 139.5
28. 9. 2022 15:00 199.34 139
28. 9. 2022 14:00 199.47 139
28. 9. 2022 13:00 199.58 140
28. 9. 2022 12:00 199.59 140
28. 9. 2022 11:00 199.51 141
28. 9. 2022 10:00 199.45 140
28. 9. 2022 09:00 199.39 141
28. 9. 2022 08:00 199.35 140
28. 9. 2022 07:00 199.30 140
28. 9. 2022 06:00 199.29 140
28. 9. 2022 05:00 199.38 140
28. 9. 2022 04:00 199.56 140
28. 9. 2022 03:00 199.73 140

H - water level, Q - outflow

VD Štěchovice

Date and time (UTC) H (m n. m.) Q (m³/s)
28. 9. 2022 15:10 217.01 145.2
28. 9. 2022 15:00 217.10 98
28. 9. 2022 14:00 217.24 24
28. 9. 2022 13:00 217.40 51
28. 9. 2022 12:00 217.72 121
28. 9. 2022 11:00 218.32 160
28. 9. 2022 10:00 218.87 160
28. 9. 2022 09:00 218.68 158
28. 9. 2022 08:00 218.44 150
28. 9. 2022 07:00 218.18 150
28. 9. 2022 06:00 217.98 138
28. 9. 2022 05:00 217.73 58
28. 9. 2022 04:00 217.83 24
28. 9. 2022 03:00 217.89 24

H - water level, Q - outflow

VD Slapy

Date and time (UTC) H (m n. m.) Q (m³/s)
28. 9. 2022 15:10 270 0
28. 9. 2022 15:00 270.02 0
28. 9. 2022 14:00 269.99 0
28. 9. 2022 13:00 269.98 0
28. 9. 2022 12:00 269.94 0
28. 9. 2022 11:00 269.89 0
28. 9. 2022 10:00 269.84 147
28. 9. 2022 09:00 269.81 213
28. 9. 2022 08:00 269.77 211
28. 9. 2022 07:00 269.74 212
28. 9. 2022 06:00 269.78 202
28. 9. 2022 05:00 269.83 52
28. 9. 2022 04:00 269.84 0
28. 9. 2022 03:00 269.85 0

H - water level, Q - outflow

VD Kamýk

Date and time (UTC) H (m n. m.) Q (m³/s)
28. 9. 2022 15:10 282.98 -
28. 9. 2022 15:00 283.01 -
28. 9. 2022 14:00 283.09 -
28. 9. 2022 13:00 283.32 -
28. 9. 2022 12:00 283.53 -
28. 9. 2022 11:00 283.83 -
28. 9. 2022 10:00 283.71 -
28. 9. 2022 09:00 283.42 -
28. 9. 2022 08:00 282.92 -
28. 9. 2022 07:00 282.52 -
28. 9. 2022 06:00 282.67 -
28. 9. 2022 05:00 282.69 -
28. 9. 2022 04:00 282.71 -
28. 9. 2022 03:00 282.72 -

H - water level, Q - outflow

VD Orlík

Date and time (UTC) H (m n. m.) Q (m³/s)
28. 9. 2022 15:10 338.05 0
28. 9. 2022 15:00 338.05 0
28. 9. 2022 14:00 338.02 0
28. 9. 2022 13:00 337.99 0
28. 9. 2022 12:00 337.96 0
28. 9. 2022 11:00 337.94 182
28. 9. 2022 10:00 337.97 336
28. 9. 2022 09:00 338.06 501
28. 9. 2022 08:00 338.15 541
28. 9. 2022 07:00 338.25 218
28. 9. 2022 06:00 338.24 26
28. 9. 2022 05:00 338.23 0
28. 9. 2022 04:00 338.21 0
28. 9. 2022 03:00 338.19 0

H - water level, Q - outflow

VD Kořensko

Date and time (UTC) H (m n. m.) Q (m³/s)
28. 9. 2022 15:10 352.52 44.9
28. 9. 2022 15:00 352.51 45
28. 9. 2022 14:00 352.48 43
28. 9. 2022 13:00 352.48 78
28. 9. 2022 12:00 352.54 79
28. 9. 2022 11:00 352.59 81
28. 9. 2022 10:00 352.63 81
28. 9. 2022 09:00 352.63 70
28. 9. 2022 08:00 352.59 70
28. 9. 2022 07:00 352.56 70
28. 9. 2022 06:00 352.54 55
28. 9. 2022 05:00 352.53 55
28. 9. 2022 04:00 352.52 55
28. 9. 2022 03:00 352.51 55

H - water level, Q - outflow

VD Hněvkovice I - přehrada

Date and time (UTC) H (m n. m.) Q (m³/s)
- - -

H - water level, Q - outflow

České Budějovice

Date and time (UTC) H (cm) Q (m³/s)
28. 9. 2022 15:10 102 19.9
28. 9. 2022 15:00 101 20
28. 9. 2022 14:00 100 19
28. 9. 2022 13:00 101 21
28. 9. 2022 12:00 102 21
28. 9. 2022 11:00 101 19
28. 9. 2022 10:00 101 20
28. 9. 2022 09:00 101 20
28. 9. 2022 08:00 100 20
28. 9. 2022 07:00 102 20
28. 9. 2022 06:00 100 20
28. 9. 2022 05:00 101 20
28. 9. 2022 04:00 101 20
28. 9. 2022 03:00 101 20

H - water level, Q - discharge
more information

Vyšší Brod

Date and time (UTC) H (cm) Q (m³/s)
28. 9. 2022 15:10 89 10.4
28. 9. 2022 15:00 89 10
28. 9. 2022 14:00 87 10
28. 9. 2022 13:00 87 10
28. 9. 2022 12:00 87 10
28. 9. 2022 11:00 87 10
28. 9. 2022 10:00 87 10
28. 9. 2022 09:00 89 10
28. 9. 2022 08:00 90 11
28. 9. 2022 07:00 90 11
28. 9. 2022 06:00 90 11
28. 9. 2022 05:00 89 10
28. 9. 2022 04:00 89 10
28. 9. 2022 03:00 89 10

H - water level, Q - discharge
Source data
Labe Basin Vltava Basin Povodí Moravy ČHMÚ